Back to catalog

CZ-4B DEB

AliveLEO
NORAD 48623·DEBRIS·🇨🇳 China

Launched May 19, 2021 from Jiuquan Satellite Launch Center

Loading…

Next Passes (next 24 hours)

TLE

FreshSource: Space-Track

Epoch: Sep 14, 2026, 10:37 UTC

1 48623U 21043C   26257.44268996  .00000023  00000-0  84649-4 0  9993
2 48623  66.0810  49.9926 0038303 265.1879  94.4819 13.89785323270081

Track CZ-4B DEB in real time with AllMySat

Download on the App Store